Starlink 5179

operational
NORAD ID: 54102 Int'l Des: 2022-136 Owner: SPXS Country: US Constellation: starlink
LEOCIRCULAR

About Starlink 5179

Description loading...

Live Position

Loading 3D Globe...

Upcoming Passes

Altitude History

Altitude vs Time

uPlot chart will show altitude changes over time

Two-Line Element Set

1 54102U 22136BD 26062.06536725 .00003335 00000-0 22742-3 0 9990
2 54102 53.2187 3.8742 0001264 84.9978 275.1158 15.08856398185985
Epoch: Mar 3, 2026 • Age: 17 hours

Current Status

Altitude 551.0 km
Velocity 7.59 km/s
Sub-Earth Point -33.95°S, 156.6°E
Launch Date Oct 20, 2022
Age 3.3 years
Type internet

Technical Details

Classification Payload
Mass 305.00 kg
Dry Mass 290.00 kg
Total Mass 305.00 kg
Length 0.20 m
Diameter 2.80 m
Span 9.00 m
Shape Box + pan
Manufacturer SPXS
Bus Type Starlink
Phase Status In Orbit
Owner/State SPXS/US

Large Constellations

Loading constellations...